Flag for U.S.A. Weather past 2 weeks in New Orleans, Louisiana, U.S.A.

Now
78 °F

Clear.


Feels Like: 80 °F
Forecast: 78 / 89 °F
Wind: 8 mph from South

Location: Lakefront Airport

Current Time: Jul 1, 2015 at 2:23:49 AM

Latest Report: Jul 1, 2015 at 1:53 AM


Visibility: 10 mi

Pressure: 30.06 "Hg

Humidity: 74%

Dew point: 69 °F

Location of New OrleansLocation

Historic Weather in New Orleans — Graph

°F

New Orleans temperature yesterday

Maximum temperature yesterday: 96 °F (at 2:53 PM)
Minimum temperature yesterday: 82 °F (at 3:53 AM)
Average temperature yesterday: 86 °F

Past Weeks' High & Low Weather Summary

 TemperatureHumidityPressure
High96 °F (Jun 30, 2:53 PM)85% (Jun 29, 2:53 AM)30.16 "Hg (Jun 29, 2:53 AM)
Low78 °F (Jun 26, 12:53 AM)45% (Jun 24, 5:53 PM)29.92 "Hg (Jun 27, 6:53 PM)
Average86 °F67%30.04 "Hg
* Reported Jun 16 12:53 AM — Jul 1 12:53 AM, New Orleans, Weather by CustomWeather, © 2015

Note: Actual official high and low records may vary slightly from our data, if they occured in-between our weather recording intervals... More about our weather records

Advertising

New Orleans weather history for previous 24 hours

 ConditionsComfort  
Time TempWeatherWind HumidityBarometerVisibility
12:53 AM
Wed, Jul 1
78 °FClear.6 mph71%30.06 "Hg10 mi
10:53 PM
Tue, Jun 30
82 °FClear.17 mph65%30.11 "Hg10 mi
9:53 PM83 °FClear.14 mph61%30.09 "Hg10 mi
8:53 PM83 °FSunny.No wind68%30.08 "Hg10 mi
7:53 PM84 °FSunny.15 mph67%30.04 "Hg10 mi
6:53 PM83 °FSunny.18 mph68%29.98 "Hg10 mi
5:53 PM83 °FPassing clouds.28 mph70%30.05 "Hg10 mi
4:53 PM91 °FSunny.12 mph49%30.02 "Hg9 mi
3:53 PM91 °FPassing clouds.15 mph50%30.02 "Hg10 mi
2:53 PM96 °FScattered clouds.5 mph47%30.03 "Hg9 mi
1:53 PM94 °FPassing clouds.6 mph49%30.04 "Hg9 mi
12:53 PM92 °FPassing clouds.9 mph54%30.06 "Hg9 mi
11:53 AM92 °FSunny.12 mph54%30.07 "Hg9 mi
10:53 AM90 °FSunny.13 mph57%30.06 "Hg9 mi
9:53 AM88 °FSunny.13 mph61%30.07 "Hg9 mi
8:53 AM85 °FSunny.13 mph72%30.07 "Hg8 mi
7:53 AM83 °FSunny.10 mph77%30.05 "Hg8 mi
6:53 AM82 °FClear.10 mph79%30.04 "Hg8 mi
5:53 AM82 °FClear.13 mph79%30.02 "Hg9 mi
4:53 AM82 °FClear.14 mph74%29.99 "Hg10 mi
3:53 AM82 °FClear.14 mph72%29.99 "Hg10 mi
2:53 AM83 °FClear.13 mph70%30.01 "Hg10 mi
Weather by CustomWeather, © 2015

See weather overviewHow to use our weather pages